ラーセン彗星

C/1998 M3 ( Larsen )

English version
Home page
Updated on September 15, 1999

---------------------------------------------------------------------

・ プロフィール

発見日 1998年6月24日
発見光度 17.6等
発見者 J. Larsen

・ 写真集

・ 軌道要素

   The following improved orbital elements by Kenji Muraoka, are 
  from 104 observations 1998 May 26 to 1999 June 14, perturbations
  by 9 Planets, Moon and 5 minor planets were taken into account.
   The mean residual is +/- 0.73 arc seconds.

      Epoch  =  1998 July  6.0  TT       JDT = 2451000.5
          T  =  1998 July 17.09589       +/- 0.01398 (m.e.) TT
       Peri. =   20.83628                +/- 0.00133
       Node  =  255.52549                +/- 0.00067   (2000.0)
       Incl. =  113.42024                +/- 0.00060
          q  =    5.7681916              +/- 0.0000354 AU
          e  =    1.0022061              +/- 0.0000290
        1/a  =   -0.0003825              +/- 0.0000050 1/AU
  orig. 1/a  =   +0.000147 
  fut.  1/a  =   +0.000208 

・ 星図

・ 光度変化

        m1 = 6.5 + 5 logΔ + 10.0 log r

---------------------------------------------------------------------

軌道要素は村岡健治氏の計算によるものです。
星図は StellaNavigator Ver.2.0 for Windows (アストロアーツ 編著 / アスキー出版局刊) で作成したものです。
光度グラフはComet for Windowsで作成したものです。

---------------------------------------------------------------------

Copyright(C) Seiichi Yoshida (comet@aerith.net). All rights reserved.